Fairfield, IA

2:01 PM CST on November 19, 2017 (GMT -0600)
Fairfield Municipal

Weather History for KFFL - November, 2011

Change the Weather History Date:

Thursday, November 24, 2011

  Actual Average Record
Temperature  
Mean Temperature 52 °F -  
Max Temperature 62 °F 44 °F 62 °F (1988)
Min Temperature 42 °F 26 °F 5 °F (2013)
Degree Days  
Heating Degree Days 13    
Growing Degree Days 2 (Base 50)    
Moisture  
Dew Point 44 °F    
Average Humidity 79    
Maximum Humidity 100    
Minimum Humidity 55    
Precipitation  
Precipitation 0.00 in - - ()
Sea Level Pressure  
Sea Level Pressure 30.10 in    
Wind  
Wind Speed 13 mph (South)    
Max Wind Speed 17 mph    
Max Gust Speed 24 mph    
Visibility 7 miles    
Events      
Averages and records for this station are not official NWS values.
T = Trace of Precipitation, MM = Missing Value Source: NWS Daily Summary

Daily Weather History Graph

Daily Weather History Graph

Search for Another Location

Airport or City:

Trip Planner

Search our weather history database for the weather conditions in past years. The results will help you decide how hot, cold, wet, or windy it might be!

Date:

Astronomy

Nov. 24, 2011 Rise Set
Actual Time 7:05 AM CST 4:43 PM CST
Civil Twilight 6:35 AM CST 5:13 PM CST
Nautical Twilight 6:01 AM CST 5:47 PM CST
Astronomical Twilight 5:28 AM CST 6:19 PM CST
Moon 6:24 AM CST (11/24) 4:13 PM CST (11/24)
Length of Visible Light 10h 37m
Length of Day
9h 37m
Waning Crescent, 0% of the Moon is Illuminated
Nov 24
Waning Crescent
Nov 25
New
Dec 2
First Quarter
Dec 10
Full
Dec 17
Last Quarter

Hourly Weather History & Observations

Time (CST) Temp. Windchill Dew Point Humidity Pressure Visibility Wind Dir Wind Speed Gust Speed Precip Events Conditions
12:15 AM 42.8 °F 37.0 °F 39.2 °F 87% 30.20 in 4.0 mi South 10.4 mph - N/A   Overcast
12:35 AM 42.8 °F 36.2 °F 39.2 °F 87% 30.19 in 4.0 mi South 12.7 mph - N/A   Overcast
12:55 AM 42.8 °F 35.8 °F 39.2 °F 87% 30.19 in 3.0 mi South 13.8 mph - N/A   Overcast
1:15 AM 42.8 °F 36.6 °F 41.0 °F 93% 30.18 in 3.0 mi South 11.5 mph - N/A   Overcast
1:35 AM 42.8 °F 37.0 °F 41.0 °F 93% 30.18 in 3.0 mi South 10.4 mph - N/A   Overcast
1:55 AM 42.8 °F 37.5 °F 41.0 °F 93% 30.18 in 3.0 mi South 9.2 mph - N/A   Overcast
2:15 AM 42.8 °F 36.2 °F 41.0 °F 93% 30.18 in 3.0 mi South 12.7 mph 16.1 mph N/A   Overcast
2:35 AM 42.8 °F 37.0 °F 41.0 °F 93% 30.18 in 3.0 mi South 10.4 mph - N/A   Overcast
3:15 AM 42.8 °F 36.6 °F 41.0 °F 93% 30.17 in 3.0 mi South 11.5 mph - N/A   Overcast
3:35 AM 42.8 °F 36.6 °F 41.0 °F 93% 30.17 in 2.5 mi South 11.5 mph - N/A   Overcast
3:55 AM 42.8 °F 37.0 °F 41.0 °F 93% 30.17 in 2.5 mi South 10.4 mph - N/A   Overcast
4:15 AM 42.8 °F 36.6 °F 41.0 °F 93% 30.16 in 2.5 mi South 11.5 mph - N/A   Overcast
4:35 AM 42.8 °F 36.2 °F 42.8 °F 100% 30.16 in 3.0 mi South 12.7 mph - N/A   Overcast
4:55 AM 42.8 °F 36.6 °F 42.8 °F 100% 30.16 in 3.0 mi South 11.5 mph 16.1 mph N/A   Overcast
5:15 AM 42.8 °F 35.8 °F 42.8 °F 100% 30.15 in 4.0 mi South 13.8 mph 18.4 mph N/A   Overcast
5:55 AM 42.8 °F 36.6 °F 41.0 °F 93% 30.16 in 4.0 mi South 11.5 mph - N/A   Overcast
6:15 AM 42.8 °F 37.0 °F 41.0 °F 93% 30.16 in 3.0 mi South 10.4 mph - N/A   Overcast
6:35 AM 42.8 °F 36.6 °F 41.0 °F 93% 30.15 in 3.0 mi South 11.5 mph - N/A   Overcast
6:55 AM 42.8 °F 36.6 °F 41.0 °F 93% 30.15 in 3.0 mi South 11.5 mph - N/A   Overcast
7:15 AM 42.8 °F 36.2 °F 41.0 °F 93% 30.15 in 3.0 mi South 12.7 mph - N/A   Overcast
7:35 AM 42.8 °F 35.4 °F 41.0 °F 93% 30.15 in 2.5 mi South 15.0 mph - N/A   Overcast
7:55 AM 42.8 °F 37.0 °F 41.0 °F 93% 30.15 in 2.5 mi South 10.4 mph - N/A   Mostly Cloudy
8:15 AM 42.8 °F 36.2 °F 41.0 °F 93% 30.15 in 3.0 mi South 12.7 mph - N/A   Scattered Clouds
8:35 AM 44.6 °F 39.2 °F 41.0 °F 87% 30.14 in 4.0 mi South 10.4 mph 17.3 mph N/A   Clear
8:55 AM 44.6 °F 37.4 °F 42.8 °F 93% 30.14 in 5.0 mi South 16.1 mph 19.6 mph N/A   Clear
9:15 AM 46.4 °F 40.7 °F 42.8 °F 87% 30.14 in 7.0 mi South 12.7 mph - N/A   Clear
9:35 AM 46.4 °F 40.1 °F 42.8 °F 87% 30.14 in 7.0 mi South 15.0 mph 19.6 mph N/A   Clear
9:55 AM 48.2 °F - 44.6 °F 87% 30.14 in 7.0 mi South 12.7 mph - N/A   Clear
10:15 AM 48.2 °F - 44.6 °F 87% 30.14 in 10.0 mi South 13.8 mph - N/A   Clear
10:35 AM 50.0 °F - 44.6 °F 82% 30.13 in 10.0 mi South 15.0 mph - N/A   Clear
10:55 AM 51.8 °F - 44.6 °F 76% 30.12 in 10.0 mi South 15.0 mph - N/A   Clear
11:15 AM 53.6 °F - 46.4 °F 77% 30.11 in 10.0 mi South 13.8 mph - N/A   Clear
11:35 AM 53.6 °F - 46.4 °F 77% 30.10 in 10.0 mi South 13.8 mph - N/A   Clear
11:55 AM 55.4 °F - 46.4 °F 72% 30.09 in 10.0 mi South 16.1 mph - N/A   Clear
12:15 PM 57.2 °F - 46.4 °F 67% 30.08 in 10.0 mi South 15.0 mph 19.6 mph N/A   Clear
12:35 PM 59.0 °F - 48.2 °F 67% 30.07 in 10.0 mi South 15.0 mph 18.4 mph N/A   Clear
12:55 PM 60.8 °F - 48.2 °F 63% 30.07 in 10.0 mi South 13.8 mph 21.9 mph N/A   Clear
1:15 PM 60.8 °F - 48.2 °F 63% 30.06 in 10.0 mi South 16.1 mph 19.6 mph N/A   Clear
1:35 PM 62.6 °F - 48.2 °F 59% 30.05 in 10.0 mi South 13.8 mph 19.6 mph N/A   Clear
1:55 PM 62.6 °F - 48.2 °F 59% 30.04 in 10.0 mi SSW 17.3 mph 23.0 mph N/A   Clear
2:15 PM 62.6 °F - 48.2 °F 59% 30.04 in 10.0 mi South 12.7 mph 21.9 mph N/A   Clear
2:35 PM 62.6 °F - 48.2 °F 59% 30.03 in 10.0 mi South 15.0 mph 20.7 mph N/A   Clear
2:55 PM 60.8 °F - 48.2 °F 63% 30.02 in 10.0 mi South 13.8 mph 24.2 mph N/A   Clear
3:15 PM 62.6 °F - 46.4 °F 55% 30.02 in 10.0 mi South 15.0 mph 18.4 mph N/A   Clear
3:35 PM 62.6 °F - 46.4 °F 55% 30.02 in 10.0 mi South 12.7 mph 20.7 mph N/A   Clear
3:55 PM 60.8 °F - 46.4 °F 59% 30.02 in 10.0 mi South 15.0 mph - N/A   Clear
4:15 PM 60.8 °F - 46.4 °F 59% 30.01 in 10.0 mi South 15.0 mph 19.6 mph N/A   Clear
4:35 PM 60.8 °F - 44.6 °F 55% 30.02 in 10.0 mi South 13.8 mph 19.6 mph N/A   Clear
4:55 PM 57.2 °F - 44.6 °F 63% 30.01 in 10.0 mi South 12.7 mph 18.4 mph N/A   Clear
5:15 PM 59.0 °F - 44.6 °F 59% 30.01 in 10.0 mi South 13.8 mph 18.4 mph N/A   Clear
5:35 PM 57.2 °F - 44.6 °F 63% 30.01 in 10.0 mi South 15.0 mph - N/A   Clear
5:55 PM 55.4 °F - 44.6 °F 67% 30.00 in 10.0 mi South 15.0 mph - N/A   Clear
6:15 PM 55.4 °F - 44.6 °F 67% 30.00 in 10.0 mi South 15.0 mph - N/A   Clear
6:55 PM 55.4 °F - 44.6 °F 67% 30.00 in 10.0 mi South 16.1 mph - N/A   Clear
7:35 PM 53.6 °F - 44.6 °F 72% 29.99 in 10.0 mi South 16.1 mph - N/A   Clear
7:55 PM 53.6 °F - 44.6 °F 72% 29.99 in 10.0 mi South 17.3 mph - N/A   Clear
8:15 PM 53.6 °F - 44.6 °F 72% 29.99 in 10.0 mi South 16.1 mph - N/A   Clear
8:35 PM 53.6 °F - 44.6 °F 72% 29.98 in 10.0 mi South 15.0 mph 19.6 mph N/A   Clear
8:55 PM 53.6 °F - 44.6 °F 72% 29.98 in 10.0 mi South 13.8 mph - N/A   Clear
9:15 PM 53.6 °F - 44.6 °F 72% 29.99 in 10.0 mi South 13.8 mph 17.3 mph N/A   Clear
9:35 PM 51.8 °F - 44.6 °F 76% 29.98 in 10.0 mi South 12.7 mph 18.4 mph N/A   Clear
9:55 PM 51.8 °F - 44.6 °F 76% 29.98 in 10.0 mi South 13.8 mph 19.6 mph N/A   Clear
10:15 PM 51.8 °F - 44.6 °F 76% 29.98 in 10.0 mi South 13.8 mph 19.6 mph N/A   Clear
10:35 PM 51.8 °F - 44.6 °F 76% 29.97 in 10.0 mi South 15.0 mph 20.7 mph N/A   Clear
11:15 PM 51.8 °F - 42.8 °F 71% 29.96 in 10.0 mi South 16.1 mph - N/A   Clear
11:35 PM 51.8 °F - 42.8 °F 71% 29.96 in 10.0 mi South 15.0 mph 19.6 mph N/A   Clear
11:55 PM 50.0 °F - 42.8 °F 76% 29.96 in 10.0 mi South 13.8 mph 20.7 mph N/A   Clear